Regional Weather Roundup
Issued by NWS San Angelo, TX

Home | Current Version | Previous Version | Text Only | Print | Product List | Glossary Off
Versions: 1 2 3 4 5 6 7 8 9 10 11 12 13 14 15 16 17 18 19 20 21 22 23 24 25 26 27 28 29 30 31 32 33 34 35 36 37 38 39 40 41 42 43 44 45 46 47 48 49 50

000
ASUS44 KSJT 240710
RWRSJT
WEST CENTRAL TEXAS REGIONAL WEATHER ROUNDUP
NATIONAL WEATHER SERVICE SAN ANGELO TX
200 AM CDT FRI MAR 24 2017

NOTE: "FAIR" INDICATES FEW OR NO CLOUDS BELOW 12,000 FEET WITH NO
SIGNIFICANT WEATHER AND/OR OBSTRUCTIONS TO VISIBILITY.

TXZ049-054-064>066-071>073-076>078-098-099-113-114-127-128-139-140-
154-155-168>170-240800
...LOCATIONS ACROSS WEST CENTRAL TEXAS...

CITY           SKY/WX    TMP DP  RH WIND       PRES   REMARKS
SAN ANGELO     MOCLDY    70  54  56 MISG      29.87R
ABILENE        CLOUDY    67  53  61 S17G26    29.83F
DYESS AFB      PTCLDY    68  55  63 SW18G26   29.80F
JUNCTION       CLOUDY    68  59  73 S23G37    29.84S
SWEETWATER     CLOUDY    62  49  62 SW10      29.88R
BROWNWOOD      CLOUDY    66  55  68 SW15G22   29.92R
COLEMAN        CLOUDY    67  55  63 SW7       29.89R
SONORA         CLEAR     68  57  68 SW10G17   29.93R
OZONA            N/A     68  54  60 MISG      29.93S
BRADY          NOT AVBL
$$

TEXAS PANHANDLE/OKLAHOMA PANHANDLE

CITY           SKY/WX    TMP DP  RH WIND       PRES   REMARKS
AMARILLO       CLEAR     49  31  49 S21G26    29.73R
BORGER         MOCLDY    54  31  41 SW29G43   29.62F
CANADIAN       CLOUDY    58  52  80 S10       29.65F
DALHART        CLEAR     47  32  56 SW28G33   29.59F WCI  38
DUMAS          SUNNY     46  33  61 S22G28    29.63S WCI  37
GUYMON         NOT AVBL
HEREFORD       SUNNY     51  28  41 SW23G30   29.75S
PAMPA          CLOUDY    53  37  54 SW21G28   29.68F
PERRYTON       CLOUDY    55  46  71 S18       29.62R
$$

SOUTHERN PANHANDLE/SOUTH PLAINS/ROLLING PLAINS

CITY           SKY/WX    TMP DP  RH WIND       PRES   REMARKS
LUBBOCK        PTCLDY    53  28  38 W21       29.80F
SNYDER         CLOUDY    66  28  23 W18G24    29.86R
CHILDRESS      CLOUDY    59  52  77 SW10      29.77R
SEMINOLE       SUNNY     55  20  25 W15       29.90F
$$

PERMIAN BASIN

CITY           SKY/WX    TMP DP  RH WIND       PRES   REMARKS
MIDLAND        CLOUDY    60  23  24 W21       29.91R
ODESSA           N/A     60  18  19 W21       29.92S
WINK             N/A     52  20  28 W8        29.93S
$$

FAR WEST/SOUTHWEST MOUNTAINS/TRANS PECOS

CITY           SKY/WX    TMP DP  RH WIND       PRES   REMARKS
ALPINE         SUNNY     55  16  21 NW7       30.06S
DRYDEN           N/A     70  23  17 N20G33    29.87R
EL PASO        CLEAR     53  22  29 W23G30    30.03R
FORT STOCKTON  CLEAR     60  19  20 NW20G30   29.96R
GUADALUPE PASS CLEAR     45  19  35 W48G59    29.93S WCI  33
MARFA          CLEAR     52  16  24 W24G33    30.03R
PECOS          SUNNY     58  20  23 W6        29.98R
$$

DALLAS/FORT WORTH METROPLEX

CITY           SKY/WX    TMP DP  RH WIND       PRES   REMARKS
DFW AIRPORT    MOCLDY    69  59  70 S33G43    29.82F
FTW MEACHAM    MOCLDY    69  56  62 S24G40    29.82S
DAL-EXECUTIVE  PTCLDY    68  59  73 S28G40    29.84F
GRAND PRAIRIE  PTCLDY    68  57  68 SE22G33   29.85F
ADDISON        MOCLDY    67  56  68 S22G32    29.87F
MESQUITE       SUNNY     66  56  69 SE23      29.88F
LANCASTER      MOSUNNY   66  57  73 S22       29.88F
$$

NORTH CENTRAL TEXAS

CITY           SKY/WX    TMP DP  RH WIND       PRES   REMARKS
SHRMAN/DENISON MOSUNNY   67  53  60 S33G40    29.84F
GAINESVILLE    MOCLDY    66  53  62 S28G33    29.82F
BRIDGEPORT     PTSUNNY   67  54  62 SW15G32   29.89R
DENTON         CLEAR     67  57  70 S31G43    29.82F
WAXAHACHIE     PTSUNNY   66  59  77 SE22G33   29.88F
GRANBURY       MOSUNNY   68  57  67 SE23G35   29.81F
$$

WESTERN NORTH TEXAS

CITY           SKY/WX    TMP DP  RH WIND       PRES   REMARKS
WICHITA FALLS  MOCLDY    70  43  37 S25G35    29.78F
VERNON         PTSUNNY   72  39  31 S22G28    29.75R
BRECKENRIDGE   CLOUDY    69  50  50 S22G28    29.86F
COMANCHE       PTCLDY    64  56  75 S10G29    29.85R
$$

CENTRAL AND SOUTH CENTRAL TEXAS

CITY           SKY/WX    TMP DP  RH WIND       PRES   REMARKS
AUSTIN/BERGSTM MOCLDY    69  63  81 S15       29.92F
WACO           MOCLDY    67  61  81 S25G36    29.87F
HILLSBORO      CLOUDY    67  61  80 S22G35    29.87F
TEMPLE         CLOUDY    66  61  82 S29G36    29.88F
KILLEEN-GRAY   CLOUDY    67  59  76 SE33G40   29.85F
FORT HOOD      CLOUDY    66  60  81 S23G35    29.84F
GEORGETOWN     CLOUDY    68  57  68 S21G28    29.89F
LAGO VISTA     CLOUDY    67  61  80 S15G28    29.91F
SAN MARCOS     CLOUDY    66  61  82 S20G29    29.94F
NEW BRAUNFELS  MOCLDY    68  62  81 S17G25    29.91F
RANDOLPH AFB   CLOUDY    67  65  92 S16G24    29.93S
SAN ANTONIO    MOCLDY    68  61  78 SE22G31   29.94R
STINSON        CLOUDY    70  62  76 SE14G24   29.91F
PLEASANTON     NOT AVBL
LA GRANGE      MOCLDY    69  66  89 S8        29.96F
GIDDINGS       PTSUNNY   68  63  83 S10G16    29.98F
$$

EAST TEXAS

CITY           SKY/WX    TMP DP  RH WIND       PRES   REMARKS
PARIS          PTCLDY    66  45  45 S17G23    29.93S
CLARKSVILLE    NOT AVBL
TYLER          MOCLDY    66  60  81 S15       29.96F
LONGVIEW       CLEAR     65  58  78 SE13      29.98F
PALESTINE      CLOUDY    67  63  85 S13G22    29.98F
NACOGDOCHES    CLOUDY    66  61  82 S14       30.00S
$$

TEXAS HILL COUNTRY AND EDWARDS PLATEAU

CITY           SKY/WX    TMP DP  RH WIND       PRES   REMARKS
LLANO          PTSUNNY   68  57  68 S12G25    29.91S
HORSESHOE BAY  CLOUDY    67  59  74 S15G33    29.88F
KERRVILLE      CLOUDY    64  60  87 S23G29    29.91S
FREDERICKSBRG  CLOUDY    64  56  76 S16G22    29.90F
ROCKSPRINGS    CLOUDY    64  61  88 S21G36    29.88F
HONDO          CLOUDY    69  63  81 SE16      29.91F
UVALDE         MOSUNNY   65  62  89 SE10G16   29.90R
DEL RIO        CLOUDY    72  60  66 SE14      29.81S
$$

SOUTHEAST TEXAS

CITY           SKY/WX    TMP DP  RH WIND       PRES   REMARKS
COLLEGE STN    CLOUDY    69  64  84 S18G30    29.97F
CALDWELL       NOT AVBL
CROCKETT       PTSUNNY   66  63  88 SE14G23   30.02R
BRENHAM        CLOUDY    70  66  86 SE12G20   30.00R
HUNTSVILLE     PTCLDY    68  61  78 S9G20     29.99F
CONROE         MOCLDY    68  62  81 S14       30.01S
HOUSTON BUSH   MOCLDY    71  63  75 S14       30.01F
HOUSTON HOBBY  MOCLDY    70  65  84 SE14      30.01F
PERLAND        MOCLDY    72  66  81 S9        30.03F
WHARTON        PTSUNNY   70  63  80 SE14      30.00F
$$

THE UPPER TEXAS COAST

CITY           SKY/WX    TMP DP  RH WIND       PRES   REMARKS
ORANGE         CLOUDY    70  66  85 S13       30.09S
PORT ARTHUR    PTCLDY    70  65  84 SE17G24   30.05F
GALVESTON      CLEAR     72  68  87 SE18      30.04F
ANGLETON       PTCLDY    72  65  78 S20       30.02F
BAY CITY       PTSUNNY   71  65  82 SE13      30.01S
$$

TEXAS COASTAL BEND, RIO GRANDE PLAINS DEEP SOUTH TEXAS

CITY           SKY/WX    TMP DP  RH WIND       PRES   REMARKS
VICTORIA       PTCLDY    70  64  81 SE15      29.96F
BEEVILLE       PTSUNNY   71  66  85 S14G22    29.95S
ROCKPORT       MOCLDY    72  65  78 SE20G30   29.94F
PORT ARANSAS   CLOUDY    71  66  85 SE17G24   29.95F
PORT LAVACA    MOSUNNY   70  66  88 SE16      29.97F
CORPUS CHRISTI MOCLDY    71  66  84 SE22G31   29.93F
KINGSVILLE NAS CLOUDY    72  68  87 SE22G28   29.91F
COTULLA        CLOUDY    71  62  73 S12G24    29.87F
LAREDO         CLOUDY    72  63  73 SE23G29   29.86F
BROWNSVILLE    CLOUDY    74  69  85 SE20G25   29.96F
PORT ISABEL    CLOUDY    74  68  81 SE22G32   29.95F
HEBBRONVILLE   PTSUNNY   69  64  82 S16G25    29.91F
MCALLEN        CLOUDY    74  67  78 SE18      29.91F
WESLACO        CLOUDY    73  67  82 S14G22    29.92F
FALFURRIAS     CLOUDY    72  66  81 SE12G22   29.91S
EDINBURG       CLOUDY    74  66  76 SE16G22   29.91F
$$



USA.gov is the U.S. government's official web portal to all federal, state and local government web resources and services.